BEIDOU 15 (C14)

Last updated on Dec. 12, 2019, 4:25 a.m. UTC

1 38775U 12050B   19345.57223631  .00000074  00000-0  00000+0 0  9999
2 38775  55.0013 142.6701 0013165 321.3298  21.2944  1.86232289 49344
UTC
Height (km)
Latitude
Longitude
Inclination
Orbital Period
UTC large
Height (km)
Speed (km/s)
/
Latitude / Longitude
Inclination (degrees)
Orbital Period (minutes)
Azimuth
Elevation
Range (km)
Doppler Factor
iOS Compass Heading
iOS Angle

Next 30 passes for location: Hong Kong

Rise time Rise Azimuth (degrees) Set time Set Azimuth (degrees) Duration Max altitude (degrees)

No matching passes for this satellites